FENGYUN 1C DEB, 30267

Orbit data source: Space-Track

FENGYUN 1C DEB, 30267 is space debris in SSO originally from a launch on Mon, 10 May 1999 UTC launched from the Taiyaun Space Center, China (TSC). Fengyun 1C debris stems from the Chinese weather satellite Fengyun-1C, which was intentionally destroyed by a Chinese anti-satellite missile in 2007. This event dramatically increased the amount of space debris, with thousands of trackable fragments posing hazards to satellites and human spaceflight. The Fengyun 1C debris cloud has become a focal point in discussions about space sustainability and the need for international regulations to prevent the creation of new debris.

Loading next visibility...
Identifier
30267, 1999-025YC
Orbit
SSO
Country
Flag of CNCN / PRC
Related business
Manufacturer
Unknown
Mission
Spacecraft
Bus & Motor
Unknown
Mass
Unknown
Launch date (UTC)
1999-05-10 (27 years ago)
Launch vehicle
Unknown
Launch site
Taiyaun Space Center, China (TSC)
Object type
Payload
Rocket body
Debris
Shape & HBR
Unknown shape, 0.1 m
Radar Cross Section
Small (<0.1 m²)

Expand to show TLE details & history
Last TLE update: 21 hours ago

TLE from 21 hours ago
0 FENGYUN 1C DEB
1 30267U 99025YC  26070.66381664  .00002823  00000-0  12229-2 0  9991
2 30267  98.8397 147.3693 0055605 348.5079  11.4826 14.24266281985600
Epoch: 2026-03-11T15:55Z
TLE epoch observation values (Epoch: 2026-03-11T15:55:53.757Z)
Latitude
-0.00005°
Longitude
99.0705°
Altitude
774.703 km
Speed
7.487 km/s
True Right ascension
09h 49m 28s
True Declination
0° 00' 00"
Sunlit
Object was in full shadow at epoch
Visualization orbit readout
Latitude
Unknown
Longitude
Unknown
Altitude
Unknown
Speed
Unknown
Apparent Right ascension
Unknown
Apparent Declination
Unknown
Sunlit
N/A
Visualization observer readout
Local Sidereal Time
17:03:06
Azimuth
Unknown
Elevation
Unknown
Doppler factor
Unknown
Orbital elements
Apogee altitude
848.079 km
Perigee altitude
768.16 km
Semi-major axis
7,186.257 km
Eccentricity
0.00556
Inclination
98.8397°
RAAN
147.3693°
Arg. of periapsis
348.5079°
True anomaly
11.61031°
Mean anomaly
11.4826°
Eccentric anomaly
11.54637°
Mean motion
3.56278 °/min
Orbital period
101.04 mins
BSTAR
0.0012229
Loading maneuver chart data...
Computing Atmospheric mass density...

Documentation

Showing up to 5 results
|